Date,TemperatureHighF,TemperatureAvgF,TemperatureLowF,DewpointHighF,DewpointAvgF,DewpointLowF,HumidityHigh,HumidityAvg,HumidityLow,PressureMaxIn,PressureMinIn,WindSpeedMaxMPH,WindSpeedAvgMPH,GustSpeedMaxMPH,PrecipitationSumIn
2014-1-1,48.2,35.5,26.4,31.8,25.6,17.8,86,68,45,30.46,30.16,7,0,8,0.00
2014-1-2,38.9,33.5,29.7,33.6,30.9,27.7,95,90,80,30.16,29.65,5,0,5,0.04
2014-1-3,31.0,19.7,13.8,29.5,11.2,3.0,94,70,45,30.54,29.67,9,1,12,0.00
2014-1-4,34.6,23.1,12.3,18.5,13.3,7.8,88,67,45,30.58,30.30,10,0,14,0.00
2014-1-5,39.1,35.6,30.4,38.3,31.1,18.3,97,84,60,30.31,29.74,4,0,4,0.43
2014-1-6,46.7,34.3,9.0,46.2,24.4,-9.5,98,69,40,30.13,29.53,20,2,25,0.23
2014-1-7,19.2,10.2,3.6,-0.7,-7.6,-12.7,59,44,33,30.50,30.13,12,2,17,0.00
2014-1-8,29.4,19.8,8.3,16.2,4.0,-2.2,76,51,32,30.66,30.50,6,0,7,0.00
2014-1-9,39.4,31.2,25.4,23.2,20.4,16.5,76,65,50,30.69,30.53,3,0,4,0.00
2014-1-10,38.1,35.0,31.2,36.8,32.1,22.9,96,89,71,30.58,30.17,2,0,2,0.56
2014-1-11,52.4,44.9,36.5,51.7,44.0,35.5,98,96,85,30.17,29.42,9,0,13,0.85
2014-1-12,52.9,44.4,33.3,46.1,33.4,29.4,90,66,47,30.14,29.58,13,1,13,0.00
2014-1-13,59.7,45.0,29.6,40.2,34.8,28.1,95,70,46,30.14,29.89,10,1,13,0.00
2014-1-14,52.7,46.2,36.1,46.6,43.5,35.3,97,91,59,29.94,29.73,9,0,9,0.31
2014-1-15,48.5,40.7,36.0,44.7,37.0,30.2,97,87,62,30.01,29.90,11,0,11,0.00
2014-1-16,40.9,34.3,28.7,31.6,23.6,18.4,87,66,42,30.07,29.93,7,0,7,0.00
2014-1-17,48.4,37.7,27.9,31.9,28.4,24.3,88,70,47,30.01,29.83,5,0,6,0.00
2014-1-18,36.9,28.9,21.1,32.5,16.8,9.1,85,62,42,30.03,29.82,14,2,16,0.00
2014-1-19,49.1,34.9,20.8,26.9,20.0,10.6,79,55,40,30.01,29.78,11,1,13,0.00
2014-1-20,56.8,43.7,34.7,29.5,27.0,25.0,71,53,33,29.91,29.68,9,1,11,0.00
2014-1-21,36.3,27.6,14.8,28.2,22.3,3.4,91,81,60,29.93,29.76,11,1,13,0.00
2014-1-22,18.7,12.3,6.1,3.0,-1.0,-3.5,66,55,42,30.15,29.92,14,2,14,0.00
2014-1-23,26.9,15.9,7.0,12.1,3.1,-1.1,83,58,39,30.48,30.14,12,1,13,0.00
2014-1-24,24.0,16.1,8.2,2.7,-0.8,-3.4,60,47,32,30.59,30.13,14,1,14,0.00
2014-1-25,33.7,27.8,20.5,23.1,11.2,1.9,73,50,39,30.13,29.51,16,2,16,0.00
2014-1-26,33.0,26.0,16.0,17.3,9.9,4.8,78,51,34,29.97,29.69,11,0,11,0.00
2014-1-27,52.4,34.3,20.4,33.0,18.2,2.9,66,52,32,30.23,29.69,17,2,17,0.00
2014-1-28,20.4,14.8,10.9,6.7,-2.6,-7.3,77,46,38,30.50,30.23,13,1,17,0.00
2014-1-29,25.2,16.3,10.0,7.7,1.1,-5.8,82,53,30,30.42,30.25,12,1,13,0.00
2014-1-30,34.2,21.8,10.9,12.1,5.8,0.4,79,52,29,30.52,30.23,7,0,7,0.00
2014-1-31,51.7,34.7,23.5,21.8,14.7,10.6,70,46,21,30.27,30.14,6,0,6,0.00
2014-2-1,52.7,38.7,25.7,31.8,23.6,17.0,82,58,28,30.33,30.03,7,0,7,0.00
2014-2-2,61.7,47.8,32.2,39.2,31.9,26.7,81,56,36,30.09,29.95,3,0,5,0.00
2014-2-3,48.8,37.8,30.8,40.1,35.1,28.0,95,90,69,30.37,30.01,9,0,10,1.45
2014-2-4,38.6,32.3,27.1,28.9,24.7,21.8,92,74,58,30.53,30.17,4,0,4,0.01
2014-2-5,40.2,34.0,30.8,35.7,30.9,21.2,96,89,62,30.19,29.73,15,1,19,0.03
2014-2-6,35.7,30.8,27.1,21.5,18.4,15.3,69,60,43,30.39,30.12,14,1,14,0.00
2014-2-7,42.4,33.0,23.3,23.5,20.9,17.1,85,62,44,30.39,30.28,7,0,7,0.00
2014-2-8,34.6,29.8,24.2,21.2,16.7,11.4,80,58,41,30.39,30.22,3,0,5,0.00
2014-2-9,34.6,30.1,23.0,28.1,22.9,17.3,91,75,60,30.24,30.02,6,0,7,0.00
2014-2-10,32.1,27.7,21.9,26.7,15.4,10.2,89,60,47,30.38,30.07,10,1,11,0.00
2014-2-11,33.7,24.3,17.3,12.7,10.1,8.9,72,55,40,30.52,30.37,6,0,7,0.00
2014-2-12,29.2,23.1,15.9,22.3,12.9,6.1,90,65,45,30.58,30.16,6,0,7,0.00
2014-2-13,36.5,32.5,24.4,35.2,31.0,21.9,96,94,89,30.16,29.34,11,1,14,0.54
2014-2-14,53.2,39.7,29.0,31.5,28.0,22.2,89,64,39,29.76,29.39,15,1,16,0.26
2014-2-15,39.4,34.3,28.3,32.2,27.4,15.0,92,76,56,29.99,29.65,14,1,16,0.12
2014-2-16,37.9,30.6,24.8,24.0,16.4,11.3,84,56,42,30.25,29.99,8,1,12,0.00
2014-2-17,37.1,29.0,21.6,23.0,14.0,9.1,84,55,33,30.50,30.25,7,0,7,0.00
2014-2-18,58.7,39.1,27.2,33.0,27.7,17.8,92,68,30,30.30,30.05,11,1,12,0.06
2014-2-19,64.4,47.1,33.0,50.1,35.4,27.3,93,66,31,30.18,29.73,13,1,17,0.10
2014-2-20,56.9,44.4,31.3,36.5,30.4,22.3,91,62,27,30.29,29.97,9,0,11,0.00
2014-2-21,68.8,47.6,36.3,61.1,43.2,35.0,95,85,66,30.00,29.67,13,0,13,0.09
2014-2-22,65.6,47.5,30.9,35.2,28.3,21.7,96,55,22,30.15,30.00,11,1,12,0.00
2014-2-23,63.2,51.6,44.2,37.3,31.2,28.7,73,47,29,30.05,29.88,10,1,11,0.00
2014-2-24,45.6,39.0,28.2,36.4,18.0,8.7,80,45,24,30.18,29.94,13,2,16,0.00
2014-2-25,38.2,30.5,26.5,29.2,21.8,13.8,89,70,47,30.18,30.03,5,0,6,0.06
2014-2-26,36.6,29.6,21.3,27.8,17.4,6.7,90,62,35,30.05,29.89,11,0,11,0.04
2014-2-27,40.1,28.3,18.3,19.6,10.5,1.7,77,50,26,30.18,29.73,15,2,15,0.02
2014-2-28,31.5,20.3,12.0,4.5,-2.2,-7.2,53,38,22,30.48,30.18,6,1,12,0.00
2014-3-1,43.6,31.4,17.2,24.1,15.7,4.4,81,54,36,30.43,30.21,6,0,7,0.00
2014-3-2,55.9,40.9,33.6,38.1,31.7,23.7,93,71,43,30.21,30.00,7,0,7,0.27
2014-3-3,35.7,22.0,11.4,33.9,17.0,6.6,93,82,56,30.40,30.02,9,1,10,0.16
2014-3-4,32.9,20.8,10.4,20.7,9.7,4.2,83,64,33,30.48,30.28,4,0,5,0.00
2014-3-5,46.2,32.0,18.6,21.0,16.8,12.5,90,58,26,30.44,30.23,7,0,8,0.17
2014-3-6,35.7,29.9,23.4,22.7,17.4,12.0,73,59,50,30.61,30.40,4,1,9,0.03
2014-3-7,45.9,36.4,29.3,32.5,27.3,22.4,78,70,57,30.40,29.96,7,1,8,0.00
2014-3-8,65.2,46.7,27.9,39.2,33.1,24.6,89,62,34,30.01,29.89,6,0,7,0.00
2014-3-9,51.2,45.8,39.5,38.6,26.4,16.7,69,48,28,30.14,29.93,7,1,12,0.00
2014-3-10,61.2,47.1,37.4,34.4,29.0,21.5,67,50,32,30.05,29.69,11,1,11,0.00
2014-3-11,71.8,54.4,42.9,42.4,37.6,31.6,73,55,32,29.75,29.65,4,0,4,0.00
2014-3-12,67.0,51.4,33.2,57.9,41.7,19.6,86,70,50,29.66,29.08,16,2,26,0.05
2014-3-13,34.9,28.2,20.2,19.9,6.4,-1.6,60,40,27,30.22,29.50,18,3,22,0.00
2014-3-14,58.5,41.8,23.4,24.7,17.3,8.1,65,39,24,30.28,29.91,18,1,18,0.00
2014-3-15,66.8,55.9,46.2,38.2,27.0,20.9,46,34,18,30.07,29.85,14,1,14,0.00
2014-3-16,46.4,40.0,28.4,30.0,25.9,19.5,93,59,35,30.21,30.07,6,0,6,0.00
2014-3-17,30.6,27.7,24.3,26.7,23.8,21.4,93,85,77,30.14,30.02,4,0,4,0.00
2014-3-18,44.0,35.7,28.3,29.0,25.0,19.9,81,65,53,30.27,30.11,5,0,6,0.49
2014-3-19,41.6,38.2,34.9,40.0,34.1,27.6,95,85,68,30.26,29.91,4,0,6,0.28
2014-3-20,59.0,51.6,40.8,44.7,29.8,22.1,97,47,25,30.04,29.89,13,2,15,0.00
2014-3-21,55.7,46.4,37.6,40.9,33.8,25.6,85,62,45,30.12,30.03,6,0,8,0.00
2014-3-22,72.0,53.4,38.5,39.3,34.9,25.4,90,55,19,30.05,29.85,11,1,11,0.00
2014-3-23,51.0,43.1,33.6,31.1,25.2,10.7,61,49,36,30.22,30.02,11,1,12,0.00
2014-3-24,41.7,31.5,22.5,15.7,10.1,7.7,56,41,26,30.37,30.18,9,1,12,0.00
2014-3-25,34.3,31.2,27.7,32.2,26.3,15.6,93,82,56,30.19,29.90,3,0,4,0.03
2014-3-26,37.2,31.0,26.7,28.4,16.4,6.9,94,58,30,30.36,29.93,15,2,19,0.00
2014-3-27,53.0,35.8,21.2,27.7,18.1,11.3,81,52,28,30.49,30.23,14,1,14,0.00
2014-3-28,66.3,55.3,43.7,54.2,44.8,27.3,88,68,51,30.23,30.02,15,2,17,0.03
2014-3-29,62.4,57.5,52.2,60.5,55.4,51.1,98,93,74,30.12,29.57,7,0,7,0.96
2014-3-30,52.2,41.9,33.6,51.0,40.0,32.3,97,93,76,29.84,29.51,15,2,20,1.33
2014-3-31,67.2,51.7,40.1,36.4,33.2,30.4,77,52,27,30.11,29.83,9,2,17,0.00
2014-4-1,69.7,53.3,39.5,41.7,35.4,29.7,72,52,31,30.21,29.98,7,0,7,0.00
2014-4-2,67.8,53.4,41.9,48.0,43.6,39.2,91,71,47,30.14,30.01,2,0,5,0.00
2014-4-3,69.3,58.7,51.5,51.0,47.1,40.2,91,67,46,30.14,29.96,6,0,6,0.00
2014-4-4,62.1,53.5,48.1,52.1,45.7,39.8,93,75,57,29.97,29.72,6,0,10,0.04
2014-4-5,57.2,50.8,43.9,48.6,36.4,28.1,97,61,37,30.18,29.72,18,1,18,0.00
2014-4-6,62.7,47.8,32.8,28.9,25.1,14.4,80,45,16,30.30,30.16,6,0,7,0.00
2014-4-7,51.4,46.1,40.0,50.6,41.1,26.3,97,84,46,30.20,29.66,7,0,9,0.41
2014-4-8,65.0,55.9,46.3,54.6,46.3,38.2,98,74,43,29.71,29.50,11,1,13,0.03
2014-4-9,66.5,53.8,41.5,40.3,35.7,27.9,86,54,27,30.08,29.70,10,1,12,0.00
2014-4-10,72.6,57.8,38.4,39.7,35.0,31.4,83,46,26,30.25,30.05,12,1,13,0.00
2014-4-11,82.5,68.0,60.4,55.0,43.8,37.3,81,44,24,30.09,29.91,11,1,14,0.00
2014-4-12,78.2,65.7,53.0,54.5,45.3,32.2,92,54,20,30.29,30.05,8,0,8,0.00
2014-4-13,85.0,76.8,55.4,57.8,56.0,51.1,90,50,37,30.17,29.98,12,1,14,0.00
2014-4-14,77.8,71.1,64.2,59.8,56.4,53.8,75,60,47,30.01,29.82,17,2,17,0.00
2014-4-15,69.7,56.2,34.3,66.4,53.7,32.5,98,92,73,30.07,29.55,13,1,15,2.87
2014-4-16,53.4,40.0,30.8,32.8,20.9,14.1,94,49,26,30.56,30.06,13,1,20,0.00
2014-4-17,57.9,44.7,32.2,36.8,32.5,25.5,89,64,42,30.69,30.56,6,0,8,0.00
2014-4-18,57.5,45.7,36.3,38.5,34.7,30.7,83,67,46,30.62,30.30,4,0,4,0.00
2014-4-19,71.0,56.1,41.9,44.2,37.0,23.9,91,55,22,30.33,30.23,7,0,7,0.00
2014-4-20,66.2,54.6,45.3,41.9,37.8,31.7,78,54,37,30.45,30.32,6,0,7,0.00
2014-4-21,76.0,55.4,37.1,42.8,35.5,27.2,85,51,21,30.32,29.90,4,0,4,0.00
2014-4-22,75.9,61.6,50.4,58.8,50.6,40.2,88,69,39,29.90,29.60,6,0,6,0.03
2014-4-23,60.1,54.0,47.2,51.3,37.4,32.4,75,54,43,30.01,29.68,13,2,22,0.00
2014-4-24,68.1,52.6,40.7,34.9,27.6,21.6,63,41,19,30.16,30.01,9,1,9,0.00
2014-4-25,72.0,55.4,43.9,52.1,42.8,34.7,96,66,35,30.05,29.74,7,0,7,0.38
2014-4-26,77.1,62.1,48.3,53.2,47.1,41.5,96,62,35,29.92,29.76,13,1,14,0.03
2014-4-27,71.5,58.0,45.0,47.7,37.3,33.4,69,47,30,30.12,29.90,7,0,7,0.00
2014-4-28,64.5,53.8,47.8,50.8,43.2,37.7,95,69,44,30.15,29.98,5,0,5,0.16
2014-4-29,49.2,48.1,46.3,48.4,47.0,43.9,97,96,91,30.23,30.08,7,0,7,1.03
2014-4-30,65.7,56.1,49.0,65.3,55.6,48.2,99,98,97,30.20,29.85,8,0,10,2.66
2014-5-1,80.0,71.5,58.4,65.3,58.7,47.3,99,68,43,29.88,29.70,8,0,11,0.16
2014-5-2,71.8,64.1,59.2,43.1,41.5,39.1,52,44,33,29.91,29.82,7,0,7,0.00
2014-5-3,76.3,63.7,52.2,50.3,45.1,40.5,82,53,30,29.92,29.75,9,0,9,0.00
2014-5-4,79.3,63.6,50.0,50.3,44.0,38.0,85,52,28,29.96,29.71,14,1,14,0.00
2014-5-5,66.1,55.9,45.2,49.5,38.9,31.1,95,56,33,30.08,29.90,8,1,10,0.31
2014-5-6,76.8,60.5,50.3,53.6,48.5,39.8,96,69,31,30.06,29.92,6,0,7,0.00
2014-5-7,66.0,57.6,51.1,56.0,49.4,41.1,93,75,45,30.29,30.06,3,0,4,0.17
2014-5-8,93.7,71.2,55.0,66.3,59.3,52.0,93,71,33,30.17,30.00,6,0,6,0.00
2014-5-9,78.8,68.3,61.1,66.6,62.1,58.2,92,81,64,30.14,29.97,4,0,4,0.00
2014-5-10,79.0,70.2,65.2,66.6,64.0,61.9,93,81,62,30.04,29.91,10,0,10,0.07
2014-5-11,85.5,71.2,58.4,62.6,54.7,48.2,95,61,29,30.17,29.98,6,0,7,0.00
2014-5-12,88.5,73.6,69.4,70.0,68.3,64.5,96,85,45,30.12,30.05,4,0,7,0.20
2014-5-13,94.7,77.3,65.8,73.9,67.4,60.0,99,75,43,30.19,30.05,4,0,5,0.00
2014-5-14,67.0,63.3,59.5,64.2,60.5,56.8,97,91,79,30.25,30.14,5,0,7,0.00
2014-5-15,82.8,71.7,65.0,71.2,67.2,64.1,98,87,65,30.16,29.92,10,0,10,0.40
2014-5-16,72.3,63.9,53.9,68.2,57.4,48.3,98,81,54,29.97,29.75,9,1,11,2.54
2014-5-17,69.8,58.9,48.2,49.2,44.5,39.5,88,61,37,30.18,29.96,7,0,7,0.00
2014-5-18,70.8,58.8,48.7,46.2,41.2,36.4,77,54,31,30.28,30.18,7,0,7,0.00
2014-5-19,75.8,60.3,44.4,46.5,41.4,36.4,87,54,26,30.33,30.18,7,0,7,0.00
2014-5-20,83.5,67.4,52.4,53.2,46.6,41.7,79,50,27,30.24,30.02,4,0,5,0.00
2014-5-21,82.2,68.5,58.5,66.2,60.3,53.1,96,77,52,30.03,29.90,3,0,3,0.14
2014-5-22,88.3,75.2,63.3,68.7,62.9,52.0,98,70,41,29.91,29.77,10,0,13,0.00
2014-5-23,79.2,68.3,55.9,55.2,50.5,45.0,80,54,36,30.05,29.90,10,1,10,0.00
2014-5-24,78.4,65.6,53.8,56.3,51.2,45.1,78,61,42,30.13,30.03,10,0,10,0.00
2014-5-25,84.3,69.7,54.0,58.1,52.9,48.7,91,59,31,30.19,30.10,5,0,5,0.00
2014-5-26,89.1,74.3,59.7,64.4,59.5,54.0,92,63,35,30.15,29.98,5,0,6,0.00
2014-5-27,90.9,75.2,64.8,71.3,65.9,62.0,98,75,44,30.00,29.83,10,0,10,0.85
2014-5-28,87.2,73.6,60.0,72.5,67.2,58.0,99,82,55,30.10,29.86,7,0,9,0.08
2014-5-29,60.0,57.2,55.7,58.3,56.1,54.5,97,96,94,30.21,30.09,5,0,7,0.38
2014-5-30,76.3,63.0,56.6,60.8,57.7,55.8,98,85,54,30.17,30.08,5,0,6,0.02
2014-5-31,81.8,69.0,57.2,57.6,52.0,44.9,93,60,30,30.28,30.12,9,0,9,0.00
2014-6-1,82.5,67.2,53.7,59.2,54.3,50.1,96,66,40,30.38,30.25,5,0,7,0.00
2014-6-2,84.3,69.6,54.8,62.7,55.2,48.6,86,62,45,30.30,30.07,7,0,8,0.00
2014-6-3,82.6,75.4,70.7,67.7,66.8,66.3,86,75,60,29.89,29.86,1,0,5,0.02
2014-6-4,89.2,76.3,65.2,67.6,64.2,56.8,96,70,35,29.89,29.71,5,0,6,0.37
2014-6-5,82.0,70.4,62.6,67.7,61.5,54.1,97,76,44,29.89,29.60,9,0,11,0.05
2014-6-6,82.3,68.8,55.3,57.5,53.8,47.9,91,61,40,30.01,29.87,8,0,8,0.00
2014-6-7,89.7,72.5,57.3,60.8,57.4,54.9,94,63,34,30.06,29.95,3,0,3,0.00
2014-6-8,86.5,78.4,60.4,67.8,65.1,59.0,96,65,49,29.99,29.84,9,0,9,0.20
2014-6-9,87.2,76.2,67.5,73.8,69.4,66.5,98,81,57,29.91,29.85,3,0,6,0.27
2014-6-10,90.5,80.6,74.2,74.4,72.2,69.2,93,77,52,29.95,29.88,4,0,4,0.00
2014-6-11,90.0,77.4,68.8,75.4,71.4,67.3,97,83,58,30.02,29.91,5,0,6,0.69
2014-6-12,80.3,72.5,68.6,74.0,70.6,67.6,98,94,80,30.00,29.85,4,0,4,0.21
2014-6-13,85.5,74.4,67.8,75.2,70.1,64.1,97,87,65,29.89,29.76,6,0,6,0.21
2014-6-14,77.8,69.8,63.5,64.7,57.9,53.3,90,68,45,30.13,29.87,11,0,11,0.00
2014-6-15,86.6,70.2,54.7,62.7,57.1,51.9,92,65,42,30.21,30.09,6,0,6,0.00
2014-6-16,97.3,78.6,62.7,71.7,66.1,61.1,97,69,36,30.16,30.05,5,0,5,0.00
2014-6-17,97.3,84.0,69.2,75.8,70.4,65.6,91,66,44,30.12,29.98,7,0,7,0.00
2014-6-18,95.7,88.3,76.8,76.8,73.2,67.8,78,62,51,30.03,29.96,6,0,7,0.00
2014-6-19,85.3,79.1,71.4,73.9,69.5,65.9,88,73,61,30.04,29.93,8,0,12,0.00
2014-6-20,87.8,75.0,65.3,67.4,60.2,50.7,94,63,33,30.07,29.94,7,0,7,0.00
2014-6-21,73.4,69.7,66.3,65.0,61.8,57.4,91,76,64,29.96,29.88,4,0,4,0.02
2014-6-22,87.6,74.1,65.8,66.5,63.5,60.4,95,72,42,29.99,29.90,4,0,4,0.03
2014-6-24,89.2,80.0,66.2,72.1,68.3,62.0,88,68,55,30.16,30.00,7,0,8,0.00
2014-6-25,92.6,79.8,71.3,75.8,72.6,69.7,96,80,55,30.03,29.82,7,0,9,0.29
2014-6-26,90.0,78.2,69.0,72.8,68.7,64.8,98,75,45,30.00,29.86,10,0,10,0.01
2014-6-27,88.8,77.2,68.4,72.8,67.8,64.4,89,74,56,30.20,30.00,6,0,7,0.00
2014-6-28,90.5,76.6,63.2,65.8,62.3,57.9,92,64,39,30.29,30.20,4,0,5,0.00
2014-6-29,89.2,76.7,62.9,63.8,59.7,51.3,89,59,32,30.27,30.13,7,0,10,0.00
2014-6-30,91.3,79.3,69.3,72.0,66.7,59.1,85,66,52,30.14,29.94,8,0,9,0.00
2014-7-1,94.6,86.7,73.3,75.9,73.2,68.1,85,65,52,29.95,29.83,8,0,8,0.00
2014-7-2,97.4,84.8,74.2,78.4,74.1,71.0,91,72,49,29.95,29.83,9,0,9,0.05
2014-7-3,92.0,77.3,70.5,78.1,72.3,69.2,98,86,57,29.99,29.89,12,0,12,0.29
2014-7-4,81.5,72.7,65.2,71.8,61.6,50.8,97,71,40,30.20,29.97,11,1,14,0.01
2014-7-5,86.1,71.6,58.0,55.5,52.7,49.9,77,54,32,30.29,30.18,5,0,8,0.00
2014-7-6,88.5,75.4,60.6,64.4,59.2,54.6,83,59,40,30.18,29.96,8,0,10,0.00
2014-7-7,92.8,82.4,70.8,68.5,65.4,62.4,76,58,42,29.97,29.81,10,1,10,0.00
2014-7-8,95.3,81.7,69.0,71.8,67.9,64.1,97,65,44,29.90,29.72,15,1,15,0.59
2014-7-9,89.3,74.5,69.3,74.5,70.1,67.0,98,88,55,30.00,29.84,6,0,7,0.07
2014-7-10,89.3,75.4,66.0,74.3,69.6,63.7,98,84,55,30.14,29.98,6,0,7,0.70
2014-7-11,89.3,75.8,64.7,71.8,67.9,64.1,99,79,51,30.22,30.13,4,0,4,0.01
2014-7-12,91.0,79.2,68.6,74.6,70.8,67.4,97,77,55,30.23,30.10,5,0,6,0.00
2014-7-13,92.4,81.5,72.8,76.2,72.1,69.0,95,75,51,30.13,29.91,8,0,8,0.07
2014-7-14,94.8,79.2,72.4,77.8,74.1,71.2,98,86,56,29.97,29.80,7,0,8,0.57
2014-7-15,88.3,76.7,70.5,77.1,73.0,69.0,99,89,63,29.85,29.72,6,0,12,1.43
2014-7-16,80.9,72.2,63.9,70.3,62.4,56.2,98,74,47,29.96,29.79,7,0,8,0.00
2014-7-17,83.5,71.2,61.1,61.5,58.8,55.6,91,67,43,30.15,29.95,7,0,7,0.00
2014-7-18,86.5,73.4,60.2,61.7,58.9,55.4,91,64,37,30.25,30.15,3,0,3,0.00
2014-7-19,85.2,75.0,68.6,65.6,61.9,57.9,85,65,43,30.22,30.13,4,0,6,0.00
2014-7-20,83.7,74.4,68.6,69.4,67.2,63.5,92,79,56,30.14,30.08,2,0,2,0.00
2014-7-21,86.0,76.6,70.1,71.7,68.4,65.7,90,77,60,30.20,30.13,5,0,5,0.00
2014-7-22,88.4,78.4,71.1,73.4,70.7,67.9,95,78,58,30.20,30.08,6,0,6,0.00
2014-7-23,93.7,81.5,72.5,77.0,72.7,69.3,94,77,53,30.08,29.80,7,0,11,0.03
2014-7-24,81.3,73.7,66.4,72.9,67.1,60.5,96,81,59,29.97,29.85,5,0,5,0.02
2014-7-25,87.2,72.3,58.7,62.2,58.5,54.3,93,65,37,30.10,29.96,6,0,7,0.00
2014-7-26,92.7,78.0,68.5,72.4,65.2,59.5,86,67,37,30.02,29.89,4,0,5,0.00
2014-7-27,84.7,77.3,70.0,74.2,71.4,67.4,95,83,66,29.90,29.64,8,0,8,0.08
2014-7-28,84.0,76.5,68.7,73.4,64.9,59.3,97,70,46,29.84,29.59,15,1,15,0.01
2014-7-29,76.0,67.7,59.2,60.3,54.2,48.7,82,63,44,30.04,29.83,9,0,9,0.00
2014-7-30,82.6,68.1,54.6,58.4,54.6,51.1,90,65,39,30.11,30.03,5,0,5,0.00
2014-7-31,87.4,74.8,61.2,66.6,61.8,57.9,93,67,40,30.14,30.07,4,0,6,0.00
2014-8-1,79.3,73.9,65.7,69.6,66.6,61.9,90,78,59,30.22,30.14,5,0,5,0.02
2014-8-2,80.7,71.4,63.7,68.7,65.8,62.0,97,83,65,30.19,30.08,2,0,2,0.11
2014-8-3,85.7,74.7,67.3,71.6,68.6,64.9,98,83,56,30.10,30.01,7,0,8,1.31
2014-8-4,90.5,74.8,65.0,72.2,67.3,62.8,99,80,45,30.13,30.05,5,0,5,0.00
2014-8-5,92.0,78.0,65.7,72.2,66.8,60.3,98,72,37,30.09,29.95,8,0,8,0.38
2014-8-6,83.0,73.5,64.8,70.0,66.6,63.7,98,81,57,29.99,29.91,5,0,8,0.02
2014-8-7,83.8,73.9,65.9,68.2,63.0,54.4,97,72,38,30.06,29.94,6,0,6,0.00
2014-8-8,83.8,73.2,62.1,64.0,60.3,55.1,91,66,41,30.16,30.06,3,0,3,0.00
2014-8-9,86.2,74.1,64.2,70.0,65.4,60.6,94,75,54,30.14,30.08,4,0,5,0.00
2014-8-10,87.5,81.4,72.5,67.8,65.2,62.8,74,58,47,30.15,30.08,4,0,4,0.00
2014-8-11,83.3,72.4,62.3,68.2,64.5,60.8,97,78,54,30.14,30.03,6,0,6,0.07
2014-8-12,73.7,70.7,68.2,72.2,69.6,67.0,98,96,94,30.03,29.77,4,0,5,2.87
2014-8-13,83.9,74.4,65.1,71.8,64.8,56.7,98,74,52,29.93,29.75,11,1,11,0.00
2014-8-14,84.5,69.7,56.4,63.2,57.2,53.3,95,67,39,29.98,29.86,7,0,8,0.00
2014-8-15,81.0,68.3,56.1,58.7,53.4,48.3,82,61,36,30.05,29.95,7,0,9,0.00
2014-8-16,84.5,71.5,58.6,60.6,56.5,51.8,89,62,37,30.05,29.95,5,0,5,0.00
2014-8-17,86.9,75.9,67.3,71.9,66.6,60.0,84,73,54,29.96,29.88,8,0,8,0.00
2014-8-18,84.7,75.4,66.1,69.1,65.8,63.1,92,73,55,29.95,29.82,3,0,4,0.00
2014-8-19,85.4,75.9,70.7,72.5,68.8,66.2,91,79,62,29.93,29.81,3,0,3,0.01
2014-8-20,86.5,73.7,66.5,69.9,66.9,62.3,97,81,49,30.03,29.92,5,0,7,0.34
2014-8-21,89.1,74.0,64.7,74.2,69.6,64.1,99,88,54,30.07,29.99,5,0,5,0.15
2014-8-22,83.4,73.9,67.4,73.7,70.5,66.8,98,89,70,30.02,29.96,4,0,4,0.02
2014-8-23,73.1,70.2,67.3,70.3,67.4,65.1,96,91,83,30.11,29.99,3,0,4,0.27
2014-8-24,82.8,71.0,63.5,66.2,63.1,58.4,96,78,48,30.17,30.10,4,0,5,0.00
2014-8-25,84.6,71.1,60.9,63.7,61.1,57.6,98,74,44,30.21,30.14,4,0,5,0.00
2014-8-26,87.5,74.1,60.9,67.2,63.1,59.5,96,72,46,30.19,30.08,5,0,6,0.00
2014-8-27,91.3,80.8,62.4,69.8,67.4,61.5,98,66,47,30.10,29.92,3,0,4,0.00
2014-8-28,85.2,76.5,66.7,70.8,64.2,55.1,88,67,43,30.10,29.90,8,0,8,0.00
2014-8-29,85.5,69.9,57.4,61.8,56.4,52.0,89,64,40,30.22,30.09,5,0,5,0.00
2014-8-30,83.3,74.6,66.3,72.4,67.5,61.8,90,79,67,30.25,30.11,5,0,5,0.00
2014-8-31,91.8,79.5,73.3,76.5,73.0,70.9,97,82,55,30.15,29.98,9,0,14,0.33
2014-9-1,90.3,79.4,72.9,79.6,74.3,72.0,98,86,58,30.05,29.95,7,0,8,0.13
2014-9-2,93.6,82.8,71.8,75.1,72.8,69.3,97,74,52,29.99,29.85,6,0,9,0.09
2014-9-3,85.4,77.0,70.2,74.8,70.5,65.9,98,82,54,30.15,29.92,3,0,3,0.00
2014-9-4,87.2,75.2,66.5,74.6,69.5,64.7,97,84,61,30.19,30.11,4,0,5,0.00
2014-9-5,91.5,81.0,70.7,76.8,73.1,69.6,97,79,56,30.18,30.02,6,0,8,0.00
2014-9-6,92.7,80.7,71.8,75.8,72.8,68.7,96,79,53,30.04,29.86,9,0,9,0.05
2014-9-7,80.9,72.3,65.7,71.2,59.9,52.3,97,67,41,30.18,29.98,8,0,8,0.00
2014-9-8,74.2,69.5,66.5,66.5,61.1,55.9,83,75,63,30.25,30.17,6,0,7,0.00
2014-9-9,76.7,70.9,67.3,67.8,64.6,61.5,86,81,73,30.22,30.10,4,0,4,0.00
2014-9-10,83.3,72.9,67.9,68.4,65.1,63.2,88,77,59,30.15,30.00,5,0,5,0.00
2014-9-11,88.1,77.4,68.8,73.7,69.5,64.7,94,78,59,30.01,29.86,9,0,9,0.00
2014-9-12,77.1,69.7,63.1,66.0,58.9,56.3,82,69,54,30.16,30.00,6,0,7,0.00
2014-9-13,69.8,64.6,56.9,65.3,60.5,55.4,95,87,72,30.24,30.11,8,0,9,0.14
2014-9-14,70.7,59.7,49.6,55.8,51.6,48.2,96,77,50,30.35,30.22,5,0,5,0.00
2014-9-15,77.2,63.5,52.6,59.8,55.0,51.2,97,76,49,30.27,30.06,3,0,4,0.00
2014-9-16,77.3,67.4,58.8,62.2,57.6,53.3,97,73,45,30.06,30.00,8,0,13,0.00
2014-9-17,78.0,63.7,53.4,57.4,53.7,51.1,94,72,43,30.08,29.97,3,0,4,0.00
2014-9-18,78.8,66.0,56.4,63.5,57.9,52.9,94,77,45,30.12,29.98,4,0,6,0.00
2014-9-19,75.7,65.7,57.1,61.0,57.4,52.8,97,76,51,30.31,30.12,3,0,5,0.00
2014-9-20,80.1,69.0,59.0,64.3,60.8,56.9,98,77,53,30.30,30.05,4,0,5,0.00
2014-9-21,85.3,70.8,58.3,68.2,62.7,57.5,98,78,48,30.06,29.65,6,0,8,0.01
2014-9-22,73.8,65.8,54.0,59.5,50.1,45.8,77,58,44,30.25,29.76,12,1,12,0.00
2014-9-23,72.0,59.2,47.6,50.7,46.7,43.4,86,65,42,30.40,30.24,3,0,4,0.00
2014-9-24,69.9,60.8,51.8,60.6,55.5,49.5,94,83,68,30.48,30.37,7,0,8,0.04
2014-9-25,65.2,62.2,59.1,63.7,60.5,58.1,97,94,86,30.37,30.24,6,0,8,0.93
2014-9-26,76.6,64.9,57.1,60.5,58.0,53.7,98,80,50,30.28,30.20,4,0,6,0.00
2014-9-27,84.8,66.6,55.4,61.0,57.2,54.2,97,75,41,30.27,30.18,4,0,5,0.00
2014-9-28,80.2,66.9,55.4,64.3,59.6,54.3,98,80,49,30.22,30.07,3,0,5,0.00
2014-9-29,71.5,65.9,60.9,65.5,62.9,59.8,97,90,77,30.07,29.94,1,0,3,0.00
2014-9-30,78.2,68.1,64.5,66.3,63.7,62.1,96,87,65,29.96,29.87,2,0,5,0.00
2014-10-1,74.8,66.3,60.5,64.5,62.5,59.3,97,88,69,30.08,29.94,2,0,3,0.06
2014-10-2,75.0,65.2,57.7,63.3,60.4,56.9,98,85,64,30.16,30.07,3,0,3,0.00
2014-10-3,69.8,67.2,61.5,65.5,63.3,59.6,97,87,82,30.08,29.72,4,0,6,0.08
2014-10-4,69.0,61.7,47.1,66.6,51.3,32.4,98,71,41,29.85,29.61,9,1,12,0.07
2014-10-5,64.1,49.9,37.8,44.2,38.9,34.3,95,69,42,30.00,29.85,5,0,7,0.00
2014-10-6,74.1,59.5,43.5,50.7,46.7,41.2,95,65,41,30.07,29.94,9,0,12,0.00
2014-10-7,71.7,63.7,60.0,60.3,55.7,49.2,95,76,56,30.08,29.90,8,0,8,0.29
2014-10-8,76.9,64.8,57.2,59.1,54.3,45.9,96,72,40,30.04,29.86,8,0,8,0.00
2014-10-9,71.2,60.5,48.1,54.8,48.1,40.7,91,66,40,30.16,30.03,9,0,9,0.00
2014-10-10,57.8,56.2,54.3,53.5,52.5,51.7,94,87,83,30.11,30.08,2,0,2,0.10
2014-10-11,57.8,53.8,52.0,55.2,52.4,50.7,97,95,89,30.20,30.01,6,0,6,0.41
2014-10-12,62.6,55.4,47.3,52.1,49.0,45.1,98,80,60,30.32,30.19,3,0,4,0.00
2014-10-13,65.1,61.0,57.7,63.7,58.7,51.3,97,92,79,30.31,30.21,1,0,1,0.10
2014-10-14,79.0,73.8,65.8,69.6,68.1,65.2,98,83,71,30.17,29.97,8,0,10,0.00
2014-10-15,76.7,69.4,59.4,71.1,67.1,58.8,98,93,82,29.97,29.77,9,0,11,1.43
2014-10-16,66.3,59.4,56.9,60.0,57.9,56.0,98,95,79,29.78,29.74,4,0,5,0.03
2014-10-17,73.5,61.6,51.1,57.5,54.2,50.6,99,79,51,29.85,29.69,7,0,9,0.00
2014-10-18,70.2,59.3,51.1,55.5,49.0,41.5,97,71,43,29.90,29.65,12,1,13,0.00
2014-10-19,60.9,51.6,43.0,43.5,38.4,32.6,86,62,40,30.15,29.88,11,1,11,0.00
2014-10-20,67.0,53.0,39.0,51.0,44.0,37.5,97,74,51,30.16,29.95,11,0,11,0.01
2014-10-21,69.3,56.8,47.8,54.6,51.0,46.4,97,82,52,29.96,29.82,6,0,6,0.34
2014-10-22,53.9,52.4,51.3,52.1,50.5,44.8,97,93,77,29.98,29.88,9,1,14,0.70
2014-10-23,63.4,57.0,50.7,49.8,46.2,43.4,80,68,55,29.95,29.87,14,1,14,0.00
2014-10-24,67.9,57.8,52.2,47.1,43.8,39.4,76,60,39,30.01,29.91,13,1,13,0.00
2014-10-25,71.3,58.1,44.5,48.8,44.3,40.4,90,62,39,29.99,29.73,7,0,7,0.00
2014-10-26,69.7,58.6,46.4,48.5,38.9,31.9,83,51,25,29.96,29.70,14,1,14,0.00
2014-10-27,71.2,54.5,40.3,45.1,38.7,33.9,88,59,28,30.13,29.95,6,0,6,0.00
2014-10-28,79.8,66.7,54.6,59.5,52.3,42.8,78,61,46,30.07,29.94,9,0,9,0.00
2014-10-29,68.8,58.8,48.0,59.7,53.9,47.0,97,85,57,30.01,29.91,9,0,11,0.03
2014-10-30,59.7,50.5,43.5,47.1,42.1,38.7,98,75,46,30.10,30.01,7,0,7,0.00
2014-10-31,57.1,47.4,39.7,43.7,38.9,36.4,95,74,49,30.06,29.85,3,0,3,0.00
2014-11-1,51.1,48.3,44.5,43.4,39.8,33.2,81,73,61,29.94,29.78,10,1,12,0.00
2014-11-2,50.4,44.8,41.7,33.2,28.4,22.3,67,53,36,30.26,29.92,18,2,18,0.00
2014-11-3,62.2,49.9,40.1,34.6,26.4,18.0,67,42,18,30.36,30.24,10,0,12,0.00
2014-11-4,70.9,54.4,41.1,45.0,39.1,32.7,85,59,26,30.26,30.11,4,0,4,0.00
2014-11-5,63.0,56.7,55.3,54.5,52.9,50.1,95,87,63,30.19,30.14,0,0,2,0.02
2014-11-6,66.2,55.7,50.4,57.9,52.5,42.9,97,89,73,30.15,29.67,3,0,5,0.55
2014-11-7,56.2,48.5,36.9,43.7,35.6,25.8,82,62,42,30.10,29.73,14,1,18,0.00
2014-11-8,52.4,41.1,29.7,37.0,29.1,26.6,90,65,43,30.12,29.95,9,0,9,0.00
2014-11-9,58.8,47.5,38.1,40.6,37.6,35.4,92,71,45,30.07,29.93,6,0,6,0.00
2014-11-10,64.5,49.1,36.5,45.3,40.2,35.2,97,74,43,30.20,30.06,7,0,7,0.00
2014-11-11,70.8,55.3,39.0,61.0,50.3,38.0,97,85,60,30.12,29.91,6,0,6,0.00
2014-11-12,66.0,56.7,41.9,61.0,47.0,30.6,97,73,39,30.16,29.87,12,1,12,0.00
2014-11-13,45.9,41.3,36.5,35.3,31.1,28.8,93,68,53,30.19,30.08,4,0,8,0.04
2014-11-14,42.3,35.7,29.3,34.9,22.4,16.6,91,59,39,30.33,30.10,9,1,12,0.00
2014-11-15,43.9,33.0,28.7,26.1,21.0,18.6,83,62,37,30.47,30.33,8,1,9,0.00
2014-11-16,45.6,40.1,31.3,39.6,29.7,24.6,94,68,45,30.40,30.05,8,0,8,0.04
2014-11-17,48.1,43.2,38.4,47.0,39.6,26.2,97,88,62,30.06,29.57,13,0,13,0.85
2014-11-18,38.4,28.3,22.8,26.2,9.0,2.4,63,44,30,30.31,29.80,14,2,17,0.00
2014-11-19,37.2,30.0,19.4,16.9,12.4,5.8,64,48,42,30.34,30.08,12,1,13,0.00
2014-11-20,54.2,41.1,31.2,27.6,21.2,15.7,59,45,34,30.09,29.92,12,1,12,0.00
2014-11-23,56.4,54.2,51.8,49.8,40.3,28.3,91,61,40,30.18,29.96,3,0,6,0.01
2014-11-24,72.8,66.9,52.4,61.5,57.7,49.8,91,73,54,29.97,29.62,14,2,14,0.20
2014-11-25,65.7,53.9,46.9,60.3,41.3,34.3,92,63,44,30.18,29.79,8,0,8,0.00
2014-11-26,48.1,38.9,33.6,41.9,36.2,31.8,96,90,68,30.19,29.92,7,0,7,1.18
2014-11-27,45.7,37.8,33.0,38.3,32.5,28.5,97,82,53,30.22,30.03,8,0,8,0.02
2014-11-28,39.4,33.3,27.5,28.4,23.1,19.9,83,67,49,30.36,30.20,10,1,10,0.00
2014-11-29,46.4,38.9,28.5,31.9,27.4,22.3,84,64,46,30.37,30.19,8,0,8,0.00
2014-11-30,66.4,51.8,37.8,46.7,39.0,30.7,78,62,48,30.19,30.07,5,1,10,0.00
2014-12-1,71.3,56.2,43.0,54.7,46.4,33.4,92,71,53,30.49,30.15,9,1,9,0.17
2014-12-2,43.2,37.0,34.4,36.2,34.3,32.0,96,90,67,30.61,30.33,4,0,6,0.75
2014-12-3,51.4,43.9,37.2,48.9,40.1,28.7,96,88,54,30.34,30.06,17,1,17,0.05
2014-12-4,45.1,39.1,30.2,32.5,29.8,28.2,94,70,54,30.52,30.33,4,0,5,0.01
2014-12-5,42.1,40.3,39.2,39.5,34.7,31.3,91,80,71,30.56,30.36,3,0,3,0.01
2014-12-6,46.6,43.0,41.7,42.2,40.2,39.2,92,90,85,30.36,30.18,4,0,4,0.00
2014-12-8,36.9,35.1,32.1,28.5,25.8,18.6,77,69,57,30.62,30.33,7,0,7,0.00
2014-12-9,43.5,39.9,34.4,38.6,37.1,33.1,95,90,77,30.03,29.89,10,1,10,0.43
2014-12-10,49.2,42.0,36.7,36.0,32.3,25.7,81,68,56,29.90,29.83,16,2,17,0.00
2014-12-11,41.3,37.7,33.4,25.7,20.2,10.2,64,50,29,30.04,29.87,18,2,18,0.00
2014-12-12,44.3,38.9,32.2,28.1,23.6,11.4,71,55,31,30.15,30.03,10,1,17,0.00
2014-12-13,47.5,36.6,27.0,33.3,28.1,23.0,88,72,57,30.17,30.03,5,0,8,0.00
2014-12-14,54.0,43.2,30.2,40.4,35.5,27.9,92,75,59,30.06,29.98,10,0,11,0.00
2014-12-15,57.6,46.2,37.7,44.1,39.8,35.0,92,79,59,30.14,30.05,5,0,5,0.00
2014-12-16,46.0,41.9,35.5,44.9,40.5,34.2,97,95,87,30.09,29.89,4,0,4,0.41
2014-12-17,53.7,44.1,36.7,43.0,35.2,25.3,97,73,49,30.09,29.92,12,1,12,0.00
2014-12-18,40.3,36.3,32.8,26.1,23.9,21.2,67,61,53,30.22,30.09,9,1,13,0.00
2014-12-19,40.4,34.8,29.2,26.8,24.8,22.8,79,67,56,30.29,30.13,10,1,11,0.00
2014-12-20,37.7,31.6,25.4,25.0,23.2,20.9,83,71,57,30.37,30.26,5,0,5,0.00
2014-12-21,42.9,35.7,30.2,27.9,26.3,24.9,83,69,54,30.40,30.30,5,0,5,0.00
2014-12-22,36.4,34.8,32.1,34.3,31.6,26.6,95,88,73,30.34,30.12,5,0,5,0.25
2014-12-23,46.4,44.5,38.7,45.2,43.5,37.9,97,96,95,30.10,30.05,2,0,2,0.05
2014-12-24,55.0,48.8,44.8,54.7,48.2,44.0,99,98,97,30.06,29.59,4,0,8,0.84
2014-12-25,57.2,49.2,42.3,56.9,39.5,31.8,99,71,47,30.27,29.59,14,1,15,0.10
2014-12-26,53.4,41.2,30.1,35.4,32.5,28.3,95,73,48,30.39,30.25,7,0,7,0.00
2014-12-27,59.7,43.9,32.1,40.2,34.3,29.6,95,73,35,30.34,30.10,3,0,3,0.00
2014-12-28,59.1,50.4,42.4,49.5,43.5,37.2,96,78,56,30.15,29.95,5,0,6,0.11
2014-12-29,44.0,41.4,40.0,41.6,32.3,26.4,93,71,57,30.29,30.14,6,0,6,0.06
2014-12-30,42.1,37.3,29.7,26.9,22.1,15.9,65,54,39,30.47,30.28,9,1,9,0.00
2014-12-31,35.0,30.6,29.4,13.4,11.6,9.9,50,45,35,30.36,30.33,3,0,3,0.00
2015-1-1,43.6,39.5,30.7,24.6,20.8,16.9,70,48,36,30.28,30.09,10,1,10,0.00
2015-1-2,45.9,36.4,30.1,26.7,24.9,21.6,84,64,42,30.46,30.12,6,0,7,0.00